sat.trackr.live / text

‹ back to catalog

STARLINK-31205

NORAD 59046 · 2024-038Z

PAYLOAD ACTIVE UNKNOWN

§ Identity

Operator
Country
US
Launch date
2024-02-25
Launch site
AFETR
Launch vehicle
Mass (kg)
RCS (m²)

Purposes: comms

External: N2YO · Heavens-Above · Gunter

§ Orbital elements

Epoch: 2026-09-20T07:47:57.334560Z

Period
94.27 min
Inclination
43.0040°
Eccentricity
0.0001010
Mean motion
15.27592588 rev/d
Perigee alt
482.3 km
Apogee alt
483.7 km
Semi-major
6,861.1 km
B*
-1.0610e-4
RAAN
4.5001°
Arg perigee
273.5187°
Mean anomaly
86.5549°
Rev number
14,456

§ Raw data

STARLINK-312051 59046U 24038Z   26263.32496915 -.00003181  00000+0 -10610-3 0  99942 59046  43.0040   4.5001 0001010 273.5187  86.5549 15.27592588144561

JSON: /api/v1/satellites/59046 · /tle

For live sub-satellite position, see the globe view (requires WebGL).

§ Visibility from observer

Set your observer location to see the next 7 days of passes ≥ 10°. The values pass through the URL so the page stays shareable.

No JS? Fill the form by hand. The geolocation button needs JavaScript.